Chicopee, MA

10:19 PM EST on February 21, 2017 (GMT -0500)
Westover Air Reserve Base / Metropolitan Airport

Weather History for KCEF - January, 2014

Change the Weather History Date:

Wednesday, January 29, 2014

  Actual Average Record
Temperature  
Mean Temperature 18 °F -  
Max Temperature 25 °F 31 °F 62 °F (2002)
Min Temperature 10 °F 15 °F -11 °F (2005)
Degree Days  
Heating Degree Days 48    
Moisture  
Dew Point -4 °F    
Average Humidity 43    
Maximum Humidity 78    
Minimum Humidity 22    
Precipitation  
Precipitation 0.00 in - - ()
Sea Level Pressure  
Sea Level Pressure 30.14 in    
Wind  
Wind Speed 5 mph (West)    
Max Wind Speed 16 mph    
Max Gust Speed 20 mph    
Visibility 10 miles    
Events      
Averages and records for this station are not official NWS values.
T = Trace of Precipitation, MM = Missing Value Source: NWS Daily Summary

Daily Weather History Graph

Daily Weather History Graph

Search for Another Location

Airport or City:

Trip Planner

Search our weather history database for the weather conditions in past years. The results will help you decide how hot, cold, wet, or windy it might be!

Date:

Astronomy

Jan. 29, 2014 Rise Set
Actual Time 7:06 AM EST 5:00 PM EST
Civil Twilight 6:36 AM EST 5:30 PM EST
Nautical Twilight 6:02 AM EST 6:04 PM EST
Astronomical Twilight 5:29 AM EST 6:37 PM EST
Moon 5:40 AM EST (1/29) 3:57 PM EST (1/29)
Length of Visible Light 10h 54m
Length of Day
9h 54m
Waning Crescent, 2% of the Moon is Illuminated
Jan 29
Waning Crescent
Jan 30
New
Feb 6
First Quarter
Feb 14
Full
Feb 22
Last Quarter

Hourly Weather History & Observations

Time (EST) Temp. Windchill Dew Point Humidity Pressure Visibility Wind Dir Wind Speed Gust Speed Precip Events Conditions
12:58 AM 14.5 °F - -3.6 °F 45% 30.22 in 10.0 mi North 2.3 mph - N/A   Clear
1:58 AM 14.4 °F - -1.5 °F 50% 30.20 in 10.0 mi Calm Calm - N/A   Clear
2:58 AM 14.7 °F - -1.7 °F 48% 30.19 in 10.0 mi SSW 2.3 mph - N/A   Clear
3:58 AM 14.2 °F 5.3 °F 2.1 °F 59% 30.17 in 10.0 mi South 5.8 mph - N/A   Clear
4:58 AM 13.6 °F 6.0 °F 3.4 °F 64% 30.15 in 10.0 mi WSW 4.6 mph - N/A   Clear
5:58 AM 12.9 °F 6.9 °F 4.3 °F 68% 30.12 in 10.0 mi NW 3.5 mph - N/A   Overcast
6:58 AM 12.0 °F - 5.4 °F 75% 30.14 in 10.0 mi WNW 1.2 mph - N/A   Mostly Cloudy
7:58 AM 11.1 °F - 5.4 °F 78% 30.14 in 10.0 mi Calm Calm - N/A   Scattered Clouds
8:58 AM 14.2 °F 8.4 °F 2.8 °F 61% 30.14 in 10.0 mi NW 3.5 mph - N/A   Clear
9:58 AM 16.9 °F 6.4 °F -7.6 °F 33% 30.14 in 10.0 mi WNW 8.1 mph - N/A   Clear
10:58 AM 18.9 °F 7.2 °F -10.8 °F 26% 30.12 in 10.0 mi West 10.4 mph - N/A   Clear
11:58 AM 21.4 °F 11.1 °F -10.7 °F 24% 30.08 in 10.0 mi West 9.2 mph - N/A   Clear
12:58 PM 23.0 °F 15.8 °F -9.6 °F 24% 30.04 in 10.0 mi West 5.8 mph - N/A   Clear
1:58 PM 25.2 °F 18.3 °F -8.0 °F 23% 30.02 in 10.0 mi WSW 5.8 mph 18.4 mph N/A   Clear
2:58 PM 25.3 °F 12.6 °F -8.7 °F 22% 30.01 in 10.0 mi West 16.1 mph - N/A   Clear
3:58 PM 25.2 °F 13.9 °F -7.1 °F 24% 30.02 in 10.0 mi WSW 12.7 mph 19.6 mph N/A   Clear
4:58 PM 22.5 °F 9.9 °F -7.4 °F 27% 30.05 in 10.0 mi WSW 13.8 mph - N/A   Clear
5:58 PM 20.5 °F 10.8 °F -6.2 °F 31% 30.09 in 10.0 mi WSW 8.1 mph - N/A   Clear
6:58 PM 18.0 °F 9.8 °F -5.1 °F 36% 30.14 in 10.0 mi West 5.8 mph - N/A   Clear
7:58 PM 18.7 °F 7.0 °F -6.3 °F 33% 30.17 in 10.0 mi West 10.4 mph - N/A   Clear
8:58 PM 13.1 °F 2.8 °F -5.3 °F 44% 30.20 in 10.0 mi West 6.9 mph - N/A   Clear
9:58 PM 13.8 °F 4.9 °F -5.4 °F 42% 30.23 in 10.0 mi West 5.8 mph - N/A   Clear
10:58 PM 10.0 °F - -4.2 °F 53% 30.25 in 10.0 mi WNW 1.2 mph - N/A   Clear
11:58 PM 12.7 °F 6.7 °F -5.8 °F 43% 30.26 in 10.0 mi WSW 3.5 mph - N/A   Clear